• In Hungary
  • List of Countries
  • For 7 days
  • Water Temperature
  • Satellite Maps
  • Weather Map
  • News
  • Weather Widgets
  • user-avatar
    Login

    Hourly Weather Borowiany

    Today, 23 October, Monday

    Time Temperature Precipitation Wind Pressure Humidity
    00:00 +9°C° 0 mm 1 mps 738 mmHg 89%
    01:00 +8°C° 0 mm 2 mps 738 mmHg 88%
    02:00 +8°C° 0 mm 2 mps 737 mmHg 88%
    03:00 +8°C° 0 mm 2 mps 737 mmHg 87%
    04:00 +8°C° 0 mm 3 mps 737 mmHg 87%
    05:00 +7°C° 0 mm 3 mps 737 mmHg 87%
    06:00 +7°C° 0 mm 3 mps 737 mmHg 87%
    07:00 +7°C° 0 mm 3 mps 737 mmHg 88%
    08:00 +8°C° 0 mm 3 mps 737 mmHg 86%
    09:00 +7°C° 0 mm 4 mps 737 mmHg 85%
    10:00 +8°C° 0 mm 4 mps 737 mmHg 83%
    11:00 +8°C° 0.1 mm 5 mps 737 mmHg 82%
    12:00 +8°C° 0.1 mm 5 mps 737 mmHg 81%
    13:00 +9°C° 0.1 mm 5 mps 738 mmHg 80%
    14:00 +9°C° 0.2 mm 5 mps 738 mmHg 81%
    15:00 +8°C° 0.2 mm 5 mps 738 mmHg 82%
    16:00 +8°C° 0.2 mm 5 mps 738 mmHg 83%
    17:00 +8°C° 0.3 mm 5 mps 738 mmHg 84%
    18:00 +8°C° 0.3 mm 5 mps 739 mmHg 86%
    19:00 +8°C° 0.3 mm 5 mps 739 mmHg 88%
    20:00 +8°C° 0.4 mm 5 mps 740 mmHg 88%
    21:00 +7°C° 0.4 mm 5 mps 740 mmHg 89%
    22:00 +7°C° 0.4 mm 5 mps 741 mmHg 89%
    23:00 +7°C° 0.3 mm 4 mps 741 mmHg 89%

    Tomorrow, 24 October, Tuesday

    Time Temperature Precipitation Wind Pressure Humidity
    00:00 +7°C° 0.3 mm 4 mps 742 mmHg 89%
    01:00 +7°C° 0.3 mm 4 mps 742 mmHg 90%
    02:00 +7°C° 0.1 mm 4 mps 743 mmHg 89%
    03:00 +6°C° 0.1 mm 4 mps 743 mmHg 89%
    04:00 +6°C° 0.1 mm 4 mps 743 mmHg 89%
    05:00 +7°C° 0 mm 3 mps 744 mmHg 88%
    06:00 +7°C° 0 mm 3 mps 744 mmHg 88%
    07:00 +7°C° 0 mm 3 mps 745 mmHg 88%
    08:00 +7°C° 0 mm 2 mps 745 mmHg 85%
    09:00 +8°C° 0 mm 2 mps 746 mmHg 82%
    10:00 +8°C° 0 mm 2 mps 746 mmHg 79%
    11:00 +8°C° 0 mm 2 mps 746 mmHg 76%
    12:00 +10°C° 0 mm 1 mps 746 mmHg 72%
    13:00 +10°C° 0 mm 1 mps 746 mmHg 69%
    14:00 +10°C° 0 mm 1 mps 746 mmHg 70%
    15:00 +10°C° 0 mm 1 mps 746 mmHg 71%
    16:00 +10°C° 0 mm 1 mps 746 mmHg 72%
    17:00 +9°C° 0 mm 1 mps 747 mmHg 75%
    18:00 +8°C° 0 mm 1 mps 747 mmHg 78%
    19:00 +8°C° 0 mm 1 mps 747 mmHg 81%
    20:00 +7°C° 0 mm 1 mps 748 mmHg 83%
    21:00 +7°C° 0 mm 1 mps 748 mmHg 84%
    22:00 +7°C° 0 mm 1 mps 748 mmHg 85%
    23:00 +5°C° 0 mm 2 mps 748 mmHg 86%

    Day after tomorrow, 25 October, Wednesday

    Time Temperature Precipitation Wind Pressure Humidity
    00:00 +5°C° 0 mm 2 mps 748 mmHg 86%
    01:00 +5°C° 0 mm 2 mps 747 mmHg 87%
    02:00 +5°C° 0 mm 2 mps 747 mmHg 87%
    03:00 +4°C° 0 mm 2 mps 747 mmHg 87%
    04:00 +4°C° 0 mm 2 mps 747 mmHg 87%
    05:00 +4°C° 0 mm 2 mps 747 mmHg 87%
    06:00 +3°C° 0 mm 3 mps 747 mmHg 86%
    07:00 +3°C° 0 mm 3 mps 747 mmHg 86%
    08:00 +5°C° 0 mm 3 mps 747 mmHg 79%
    09:00 +7°C° 0 mm 3 mps 747 mmHg 73%
    10:00 +9°C° 0 mm 3 mps 747 mmHg 66%
    11:00 +10°C° 0.1 mm 3 mps 746 mmHg 66%
    12:00 +10°C° 0.1 mm 3 mps 746 mmHg 66%
    13:00 +11°C° 0.1 mm 3 mps 746 mmHg 66%
    14:00 +11°C° 0 mm 3 mps 746 mmHg 69%
    15:00 +11°C° 0 mm 3 mps 746 mmHg 73%
    16:00 +11°C° 0 mm 3 mps 745 mmHg 76%
    17:00 +11°C° 0 mm 3 mps 746 mmHg 80%
    18:00 +11°C° 0 mm 3 mps 746 mmHg 84%
    19:00 +11°C° 0 mm 3 mps 746 mmHg 88%
    20:00 +11°C° 0 mm 3 mps 746 mmHg 89%
    21:00 +11°C° 0 mm 3 mps 746 mmHg 89%
    22:00 +11°C° 0 mm 3 mps 746 mmHg 90%
    23:00 +11°C° 0 mm 3 mps 746 mmHg 91%

    26 October, Thursday

    Time Temperature Precipitation Wind Pressure Humidity
    00:00 +11°C° 0 mm 3 mps 746 mmHg 91%
    01:00 +11°C° 0 mm 3 mps 746 mmHg 92%
    02:00 +11°C° 0 mm 3 mps 746 mmHg 93%
    03:00 +11°C° 0 mm 3 mps 746 mmHg 93%
    04:00 +10°C° 0 mm 3 mps 746 mmHg 93%
    05:00 +10°C° 0 mm 3 mps 746 mmHg 93%
    06:00 +10°C° 0 mm 3 mps 746 mmHg 93%
    07:00 +10°C° 0 mm 3 mps 746 mmHg 92%
    08:00 +11°C° 0 mm 3 mps 746 mmHg 88%
    09:00 +12°C° 0 mm 4 mps 746 mmHg 83%
    10:00 +13°C° 0 mm 4 mps 746 mmHg 79%
    11:00 +14°C° 0.1 mm 4 mps 745 mmHg 76%
    12:00 +15°C° 0.1 mm 4 mps 745 mmHg 73%
    13:00 +15°C° 0.1 mm 4 mps 744 mmHg 70%
    14:00 +15°C° 0.1 mm 4 mps 744 mmHg 72%
    15:00 +16°C° 0.1 mm 3 mps 744 mmHg 74%
    16:00 +14°C° 0.1 mm 3 mps 744 mmHg 76%
    17:00 +14°C° 0.1 mm 3 mps 744 mmHg 79%
    18:00 +13°C° 0.1 mm 3 mps 743 mmHg 81%
    19:00 +13°C° 0.1 mm 2 mps 743 mmHg 84%
    20:00 +13°C° 0.5 mm 2 mps 743 mmHg 85%
    21:00 +13°C° 0.5 mm 2 mps 743 mmHg 87%
    22:00 +13°C° 0.5 mm 2 mps 742 mmHg 88%
    23:00 +12°C° 0.4 mm 3 mps 742 mmHg 88%

    27 October, Friday

    Time Temperature Precipitation Wind Pressure Humidity
    00:00 +12°C° 0.4 mm 3 mps 742 mmHg 87%
    01:00 +12°C° 0.4 mm 4 mps 741 mmHg 87%
    02:00 +12°C° 0.5 mm 4 mps 741 mmHg 88%
    03:00 +12°C° 0.5 mm 3 mps 740 mmHg 89%
    04:00 +12°C° 0.5 mm 3 mps 739 mmHg 90%
    05:00 +12°C° 0.9 mm 3 mps 739 mmHg 90%
    06:00 +11°C° 0.9 mm 3 mps 739 mmHg 90%
    07:00 +11°C° 0.9 mm 3 mps 738 mmHg 90%
    08:00 +11°C° 0.7 mm 3 mps 738 mmHg 89%
    09:00 +11°C° 0.7 mm 4 mps 738 mmHg 88%
    10:00 +10°C° 0.7 mm 4 mps 737 mmHg 87%
    11:00 +10°C° 0.8 mm 4 mps 737 mmHg 87%
    12:00 +10°C° 0.8 mm 4 mps 736 mmHg 86%
    13:00 +8°C° 0.8 mm 5 mps 736 mmHg 85%
    14:00 +8°C° 0.5 mm 5 mps 736 mmHg 84%
    15:00 +8°C° 0.5 mm 5 mps 736 mmHg 84%
    16:00 +8°C° 0.5 mm 5 mps 736 mmHg 83%
    17:00 +8°C° 0.2 mm 5 mps 736 mmHg 83%
    18:00 +8°C° 0.2 mm 5 mps 736 mmHg 83%
    19:00 +8°C° 0.2 mm 5 mps 736 mmHg 82%
    20:00 +8°C° 0.1 mm 6 mps 736 mmHg 83%
    21:00 +7°C° 0.1 mm 6 mps 736 mmHg 84%
    22:00 +7°C° 0.1 mm 6 mps 736 mmHg 85%
    23:00 +7°C° 0.1 mm 6 mps 735 mmHg 85%

    28 October, Saturday

    Time Temperature Precipitation Wind Pressure Humidity
    00:00 +7°C° 0.1 mm 6 mps 735 mmHg 85%
    01:00 +7°C° 0.1 mm 6 mps 735 mmHg 85%
    02:00 +7°C° 0.1 mm 5 mps 734 mmHg 84%
    03:00 +7°C° 0.1 mm 5 mps 734 mmHg 84%
    04:00 +6°C° 0.1 mm 5 mps 734 mmHg 83%
    05:00 +6°C° 0.2 mm 5 mps 733 mmHg 84%
    06:00 +6°C° 0.2 mm 5 mps 733 mmHg 85%
    07:00 +6°C° 0.2 mm 4 mps 732 mmHg 85%
    08:00 +6°C° 0.5 mm 5 mps 732 mmHg 83%
    09:00 +7°C° 0.5 mm 5 mps 732 mmHg 81%
    10:00 +7°C° 0.5 mm 6 mps 731 mmHg 79%
    11:00 +7°C° 0.3 mm 6 mps 731 mmHg 77%
    12:00 +8°C° 0.3 mm 6 mps 730 mmHg 75%
    13:00 +8°C° 0.3 mm 6 mps 730 mmHg 73%
    14:00 +8°C° 0.4 mm 5 mps 730 mmHg 76%
    15:00 +8°C° 0.4 mm 4 mps 730 mmHg 79%
    16:00 +7°C° 0.4 mm 4 mps 729 mmHg 83%
    17:00 +8°C° 0.2 mm 3 mps 730 mmHg 85%
    18:00 +8°C° 0.2 mm 3 mps 730 mmHg 87%
    19:00 +7°C° 0.2 mm 3 mps 731 mmHg 89%
    20:00 +7°C° 0 mm 3 mps 731 mmHg 90%
    21:00 +5°C° 0 mm 3 mps 732 mmHg 90%
    22:00 +5°C° 0 mm 3 mps 732 mmHg 90%
    23:00 +5°C° 0 mm 3 mps 733 mmHg 92%

    29 October, Sunday

    Time Temperature Precipitation Wind Pressure Humidity
    00:00 +4°C° 0 mm 3 mps 734 mmHg 93%
    01:00 +4°C° 0 mm 3 mps 734 mmHg 94%
    02:00 +5°C° 0.1 mm 4 mps 735 mmHg 93%
    03:00 +5°C° 0.1 mm 4 mps 735 mmHg 91%
    04:00 +6°C° 0.1 mm 4 mps 736 mmHg 90%
    05:00 +6°C° 0.1 mm 4 mps 736 mmHg 90%
    06:00 +6°C° 0.1 mm 4 mps 737 mmHg 89%
    07:00 +6°C° 0.1 mm 4 mps 737 mmHg 89%
    08:00 +6°C° 0.1 mm 4 mps 738 mmHg 87%
    09:00 +6°C° 0.1 mm 5 mps 738 mmHg 85%
    10:00 +6°C° 0.1 mm 5 mps 738 mmHg 83%
    11:00 +7°C° 0 mm 5 mps 738 mmHg 79%
    12:00 +7°C° 0 mm 5 mps 738 mmHg 76%
    13:00 +8°C° 0 mm 5 mps 738 mmHg 72%
    14:00 +8°C° 0 mm 4 mps 737 mmHg 73%
    15:00 +8°C° 0 mm 4 mps 737 mmHg 73%
    16:00 +9°C° 0 mm 3 mps 736 mmHg 74%
    17:00 +7°C° 0.1 mm 4 mps 736 mmHg 76%
    18:00 +7°C° 0.1 mm 4 mps 736 mmHg 77%
    19:00 +7°C° 0.1 mm 5 mps 736 mmHg 79%
    20:00 +7°C° 0.1 mm 5 mps 735 mmHg 80%
    21:00 +7°C° 0.1 mm 5 mps 735 mmHg 81%
    22:00 +7°C° 0.1 mm 5 mps 735 mmHg 83%
    23:00 +8°C° 0.1 mm 5 mps 734 mmHg 82%
    Show more